Weather History for Oshkosh, WI

Change the Weather History Date:

Monday, June 30, 2014

  Actual Average Record
Temperature  
Mean Temperature 74 °F -  
Max Temperature 82 °F 81 °F 96 °F (1970)
Min Temperature 68 °F 59 °F 48 °F (2007)
Cooling Degree Days 10    
Growing Degree Days 24 (Base 50)    
Moisture  
Dew Point 68 °F    
Average Humidity 84    
Maximum Humidity 93    
Minimum Humidity 72    
Precipitation  
Precipitation 0.52 in - - ()
Sea Level Pressure  
Sea Level Pressure 29.69 in    
Wind  
Wind Speed 12 mph (SSW)    
Max Wind Speed 21 mph    
Max Gust Speed 33 mph    
Visibility 8 miles    
Events Rain , Thunderstorm    
Averages and records for this station are not official NWS values.
T = Trace of Precipitation, MM = Missing Value Source: NWS Daily Summary

Daily Weather History Graph

Daily Weather History Graph

Search for Another Location

Airport:

Trip Planner

Search our weather history database for the weather conditions in past years. The results will help you decide how hot, cold, wet, or windy it might be!

Date:

Astronomy

Jun. 30, 2014 Rise Set
Actual Time 5:14 AM CDT 8:40 PM CDT
Civil Twilight 4:38 AM CDT 9:16 PM CDT
Nautical Twilight 3:51 AM CDT 10:04 PM CDT
Astronomical Twilight 2:51 AM CDT 11:04 PM CDT
Moon 8:34 AM CDT (6/30) 10:25 PM CDT (6/30)
Length of Visible Light 16h 38m
Length of Day
15h 26m
Waxing Crescent, 10% of the Moon is Illuminated
Jun 30
Waxing Crescent
Jul 5
First Quarter
Jul 12
Full
Jul 18
Last Quarter
Jul 26
New

Hourly Weather History & Observations

Time (CDT) Temp. Heat Index Dew Point Humidity Pressure Visibility Wind Dir Wind Speed Gust Speed Precip Events Conditions
12:06 AM 73.0 °F - 71.1 °F 93% 29.81 in 2.5 mi South 20.7 mph 26.5 mph 0.12 in Rain , Thunderstorm Heavy Thunderstorms and Rain
12:14 AM 72.0 °F - 69.1 °F 91% 29.81 in 1.2 mi SSW 20.7 mph 33.4 mph 0.25 in Rain , Thunderstorm Heavy Thunderstorms and Rain
12:20 AM 70.0 °F - 66.0 °F 87% 29.80 in 2.0 mi SW 5.8 mph 26.5 mph 0.33 in Rain , Thunderstorm Heavy Thunderstorms and Rain
12:24 AM 71.1 °F - 68.0 °F 90% 29.79 in 3.0 mi SSW 9.2 mph - 0.33 in Rain , Thunderstorm Light Thunderstorms and Rain
12:26 AM 71.1 °F - 69.1 °F 93% 29.79 in 6.0 mi SSW 8.1 mph - 0.33 in Rain Light Rain
12:53 AM 70.0 °F - 66.0 °F 87% 29.78 in 10.0 mi SSW 13.8 mph 23.0 mph 0.33 in   Partly Cloudy
1:53 AM 68.0 °F - 64.9 °F 90% 29.76 in 10.0 mi South 10.4 mph - N/A   Clear
2:53 AM 70.0 °F - 66.0 °F 87% 29.75 in 10.0 mi SSW 12.7 mph - N/A   Mostly Cloudy
3:53 AM 70.0 °F - 64.9 °F 84% 29.74 in 10.0 mi SSW 13.8 mph - N/A   Clear
4:53 AM 69.1 °F - 64.0 °F 84% 29.73 in 10.0 mi SSW 12.7 mph - N/A   Clear
5:53 AM 68.0 °F - 64.0 °F 87% 29.73 in 10.0 mi SSW 9.2 mph - N/A   Clear
6:53 AM 70.0 °F - 66.0 °F 87% 29.71 in 10.0 mi SSW 15.0 mph - N/A   Clear
7:53 AM 72.0 °F - 66.9 °F 84% 29.69 in 10.0 mi SSW 16.1 mph 23.0 mph N/A   Clear
8:53 AM 73.0 °F - 69.1 °F 87% 29.70 in 10.0 mi SSW 15.0 mph 23.0 mph N/A   Partly Cloudy
9:10 AM 73.9 °F - 69.1 °F 85% 29.74 in 10.0 mi SW 9.2 mph 21.9 mph N/A   Mostly Cloudy
9:53 AM 75.9 °F - 70.0 °F 82% 29.70 in 10.0 mi SW 10.4 mph 17.3 mph N/A   Overcast
10:19 AM 77.0 °F - 70.0 °F 79% 29.74 in - North - - N/A   Unknown
10:53 AM 79.0 °F - 70.0 °F 74% 29.70 in - North - - N/A   Unknown
11:53 AM 79.0 °F - 71.1 °F 77% 29.69 in 10.0 mi SW 9.2 mph - N/A   Unknown
12:06 PM 80.1 °F 83.8 °F 72.0 °F 76% 29.74 in 10.0 mi SW 13.8 mph 20.7 mph N/A   Overcast
12:53 PM 79.0 °F - 72.0 °F 79% 29.69 in 10.0 mi SW 6.9 mph 20.7 mph N/A   Mostly Cloudy
1:18 PM 79.0 °F - 71.1 °F 77% 29.72 in 10.0 mi SW 10.4 mph 19.6 mph N/A   Scattered Clouds
1:53 PM 80.1 °F 83.8 °F 72.0 °F 76% 29.67 in 10.0 mi SSW 9.2 mph 17.3 mph N/A   Partly Cloudy
2:53 PM 81.0 °F 85.2 °F 72.0 °F 74% 29.65 in 10.0 mi WSW 8.1 mph - N/A   Partly Cloudy
3:53 PM 81.0 °F 84.9 °F 71.1 °F 72% 29.67 in 10.0 mi WSW 9.2 mph - N/A   Partly Cloudy
4:53 PM 79.0 °F - 71.1 °F 77% 29.66 in 10.0 mi Variable 3.5 mph - 0.00 in   Mostly Cloudy
5:36 PM 75.9 °F - 70.0 °F 82% 29.67 in 2.0 mi SW 4.6 mph - 0.02 in Rain Light Rain
5:43 PM 75.9 °F - 70.0 °F 82% 29.67 in 8.0 mi SW 5.8 mph - 0.03 in Rain , Thunderstorm Light Rain
5:53 PM 75.0 °F - 70.0 °F 84% 29.64 in 8.0 mi WSW 5.8 mph - 0.04 in Rain , Thunderstorm Light Rain
6:08 PM 73.9 °F - 69.1 °F 85% 29.69 in 10.0 mi Variable 6.9 mph - 0.00 in Rain , Thunderstorm Light Thunderstorms and Rain
6:28 PM 72.0 °F - 66.0 °F 81% 29.70 in 7.0 mi WSW 5.8 mph - 0.02 in Rain Light Rain
6:39 PM 71.1 °F - 66.0 °F 84% 29.71 in 4.0 mi Variable 6.9 mph - 0.06 in Rain , Thunderstorm Thunderstorms and Rain
6:53 PM 70.0 °F - 64.9 °F 84% 29.66 in 6.0 mi SW 5.8 mph - 0.10 in Rain Rain
7:04 PM 69.1 °F - 64.9 °F 87% 29.64 in 7.0 mi SSE 10.4 mph - 0.02 in Rain , Thunderstorm Light Rain
7:40 PM 68.0 °F - 64.9 °F 90% 29.55 in 10.0 mi SSE 12.7 mph 24.2 mph 0.04 in Rain Light Rain
7:53 PM 68.0 °F - 66.0 °F 93% 29.55 in 10.0 mi South 13.8 mph - 0.04 in   Partly Cloudy
8:53 PM 68.0 °F - 64.9 °F 90% 29.55 in 10.0 mi South 6.9 mph - 0.01 in   Mostly Cloudy
9:10 PM 68.0 °F - 64.9 °F 90% 29.56 in 10.0 mi South 9.2 mph - N/A   Scattered Clouds
9:53 PM 68.0 °F - 64.9 °F 90% 29.56 in 10.0 mi SSW 13.8 mph - 0.00 in   Mostly Cloudy
10:53 PM 69.1 °F - 64.9 °F 87% 29.54 in 10.0 mi SW 12.7 mph 24.2 mph N/A   Clear